| time (UTC) | temp F | wind direction | speed MPH | gust MPH | rain 1hr in | rain 24hr in | rain mn in | humidity % | barometer mb |
| 20260831075032 | 57 | 0 | 0.0 | 0.0 | 0.00 | 0.00 | 0.00 | 96 | 1020.9 |
| 20260831074558 | 57 | 0 | 0.0 | 3.0 | 0.00 | 0.00 | 0.00 | 96 | 1020.9 |
| 20260831074032 | 57 | 0 | 0.0 | 3.0 | 0.00 | 0.00 | 0.00 | 95 | 1020.8 |
| 20260831073532 | 57 | 0 | 0.0 | 2.0 | 0.00 | 0.00 | 0.00 | 95 | 1020.8 |
| 20260831073050 | 57 | 0 | 0.0 | 3.0 | 0.00 | 0.00 | 0.00 | 95 | 1020.9 |
| 20260831072532 | 57 | 0 | 0.0 | 4.0 | 0.00 | 0.00 | 0.00 | 95 | 1020.9 |
| 20260831072033 | 57 | 0 | 0.0 | 4.0 | 0.00 | 0.00 | 0.00 | 95 | 1020.8 |
| 20260831071555 | 57 | 232 | 0.0 | 3.0 | 0.00 | 0.00 | 0.00 | 96 | 1020.8 |
| 20260831071032 | 57 | 0 | 0.0 | 6.0 | 0.00 | 0.00 | 0.00 | 95 | 1020.8 |
| 20260831070534 | 57 | 0 | 0.0 | 6.0 | 0.00 | 0.00 | 0.00 | 95 | 1020.6 |
| 20260831070059 | 57 | 0 | 1.0 | 6.0 | 0.00 | 0.00 | 0.00 | 95 | 1020.7 |
| 20260831065532 | 57 | 0 | 0.0 | 5.0 | 0.00 | 0.00 | 0.00 | 95 | 1020.6 |
| 20260831065032 | 57 | 202 | 1.0 | 7.0 | 0.00 | 0.00 | 0.00 | 95 | 1020.7 |
| 20260831064556 | 57 | 270 | 1.0 | 7.0 | 0.00 | 0.00 | 0.00 | 95 | 1020.6 |
| 20260831064033 | 57 | 0 | 0.0 | 6.0 | 0.00 | 0.00 | 0.00 | 95 | 1020.7 |
| 20260831063531 | 57 | 264 | 1.0 | 6.0 | 0.00 | 0.00 | 0.00 | 95 | 1020.5 |
| 20260831063047 | 57 | 0 | 2.0 | 6.0 | 0.00 | 0.00 | 0.00 | 95 | 1020.6 |
| 20260831062533 | 57 | 256 | 0.0 | 6.0 | 0.00 | 0.00 | 0.00 | 95 | 1020.6 |
| 20260831062033 | 57 | 267 | 1.0 | 8.0 | 0.00 | 0.00 | 0.00 | 95 | 1020.7 |
| 20260831061601 | 57 | 273 | 3.0 | 8.0 | 0.00 | 0.00 | 0.00 | 95 | 1020.7 |
| 20260831061033 | 57 | 251 | 2.0 | 7.0 | 0.00 | 0.00 | 0.00 | 95 | 1020.7 |
| 20260831060532 | 57 | 226 | 3.0 | 10.0 | 0.00 | 0.00 | 0.00 | 95 | 1020.6 |
| 20260831060106 | 57 | 250 | 2.0 | 10.0 | 0.00 | 0.00 | 0.00 | 95 | 1020.8 |
| 20260831055529 | 57 | 264 | 3.0 | 10.0 | 0.00 | 0.00 | 0.00 | 95 | 1020.7 |
| 20260831055032 | 57 | 254 | 3.0 | 8.0 | 0.00 | 0.00 | 0.00 | 95 | 1020.7 |
| 20260831054554 | 57 | 269 | 2.0 | 7.0 | 0.00 | 0.00 | 0.00 | 95 | 1020.6 |
| 20260831054034 | 57 | 251 | 3.0 | 12.0 | 0.00 | 0.00 | 0.00 | 95 | 1020.7 |
| 20260831053529 | 57 | 215 | 3.0 | 12.0 | 0.00 | 0.00 | 0.00 | 95 | 1020.6 |
| 20260831053050 | 57 | 227 | 4.0 | 12.0 | 0.00 | 0.00 | 0.00 | 95 | 1020.6 |
| 20260831052532 | 57 | 266 | 2.0 | 10.0 | 0.00 | 0.00 | 0.00 | 95 | 1020.6 |
| 20260831052032 | 58 | 254 | 4.0 | 10.0 | 0.00 | 0.00 | 0.00 | 95 | 1020.6 |
| 20260831051604 | 58 | 248 | 3.0 | 8.0 | 0.00 | 0.00 | 0.00 | 95 | 1020.5 |
| 20260831051033 | 58 | 257 | 3.0 | 8.0 | 0.00 | 0.00 | 0.00 | 95 | 1020.6 |
| 20260831050534 | 58 | 255 | 3.0 | 9.0 | 0.00 | 0.00 | 0.00 | 95 | 1020.6 |
| 20260831050051 | 58 | 264 | 3.0 | 9.0 | 0.00 | 0.00 | 0.00 | 94 | 1020.4 |
| 20260831045532 | 58 | 288 | 3.0 | 8.0 | 0.00 | 0.00 | 0.00 | 95 | 1020.5 |
| 20260831045032 | 58 | 259 | 3.0 | 9.0 | 0.00 | 0.00 | 0.00 | 94 | 1020.5 |
| 20260831044600 | 58 | 251 | 2.0 | 9.0 | 0.00 | 0.00 | 0.00 | 94 | 1020.5 |
| 20260831044036 | 58 | 168 | 3.0 | 9.0 | 0.00 | 0.00 | 0.00 | 94 | 1020.6 |
| 20260831043532 | 58 | 265 | 4.0 | 15.0 | 0.00 | 0.00 | 0.00 | 94 | 1020.5 |
| 20260831043057 | 58 | 276 | 4.0 | 15.0 | 0.00 | 0.00 | 0.00 | 94 | 1020.4 |
| 20260831042533 | 58 | 270 | 5.0 | 11.0 | 0.00 | 0.00 | 0.00 | 94 | 1020.4 |
| 20260831042032 | 58 | 227 | 3.0 | 9.0 | 0.00 | 0.00 | 0.00 | 94 | 1020.3 |
| 20260831041551 | 58 | 215 | 3.0 | 7.0 | 0.00 | 0.00 | 0.00 | 93 | 1020.1 |
| 20260831041034 | 58 | 258 | 1.0 | 6.0 | 0.00 | 0.00 | 0.00 | 93 | 1020.3 |
| 20260831040536 | 58 | 276 | 0.0 | 4.0 | 0.00 | 0.00 | 0.00 | 93 | 1020.3 |
| 20260831040058 | 58 | 0 | 0.0 | 4.0 | 0.00 | 0.00 | 0.00 | 94 | 1020.4 |
| 20260831035530 | 58 | 46 | 1.0 | 4.0 | 0.00 | 0.00 | 0.00 | 93 | 1020.5 |
| 20260831035034 | 58 | 128 | 0.0 | 4.0 | 0.00 | 0.00 | 0.00 | 93 | 1020.5 |
| 20260831034555 | 58 | 252 | 0.0 | 4.0 | 0.00 | 0.00 | 0.00 | 93 | 1020.5 |
| 20260831034032 | 59 | 0 | 1.0 | 4.0 | 0.00 | 0.00 | 0.00 | 93 | 1020.6 |
| 20260831033532 | 59 | 248 | 0.0 | 8.0 | 0.00 | 0.00 | 0.00 | 93 | 1020.6 |
| 20260831033055 | 59 | 165 | 1.0 | 8.0 | 0.00 | 0.00 | 0.00 | 93 | 1020.6 |
| 20260831032532 | 59 | 36 | 0.0 | 7.0 | 0.00 | 0.00 | 0.00 | 93 | 1020.7 |
| 20260831032032 | 59 | 0 | 1.0 | 8.0 | 0.00 | 0.00 | 0.00 | 93 | 1020.6 |
| 20260831031549 | 59 | 266 | 3.0 | 8.0 | 0.00 | 0.00 | 0.00 | 93 | 1020.2 |
| 20260831031029 | 59 | 269 | 3.0 | 8.0 | 0.00 | 0.00 | 0.00 | 93 | 1020.3 |
| 20260831030533 | 59 | 243 | 4.0 | 12.0 | 0.00 | 0.00 | 0.00 | 93 | 1020.5 |
| 20260831030113 | 59 | 255 | 3.0 | 12.0 | 0.00 | 0.00 | 0.00 | 93 | 1020.8 |
| 20260831025529 | 59 | 262 | 4.0 | 10.0 | 0.00 | 0.00 | 0.00 | 93 | 1020.6 |
| 20260831025032 | 59 | 257 | 3.0 | 10.0 | 0.00 | 0.00 | 0.00 | 93 | 1020.9 |
| 20260831024636 | 59 | 249 | 5.0 | 13.0 | 0.00 | 0.00 | 0.00 | 93 | 1020.9 |
| 20260831024112 | 59 | 231 | 4.0 | 13.0 | 0.00 | 0.00 | 0.00 | 93 | 1020.8 |
| 20260831023529 | 59 | 253 | 3.0 | 10.0 | 0.00 | 0.00 | 0.00 | 93 | 1020.7 |
| 20260831023052 | 59 | 285 | 3.0 | 10.0 | 0.00 | 0.00 | 0.00 | 92 | 1020.6 |
| 20260831022530 | 59 | 275 | 4.0 | 11.0 | 0.00 | 0.00 | 0.00 | 92 | 1020.4 |
| 20260831022030 | 59 | 244 | 4.0 | 11.0 | 0.00 | 0.00 | 0.00 | 92 | 1020.4 |
| 20260831021548 | 59 | 302 | 4.0 | 12.0 | 0.00 | 0.00 | 0.00 | 92 | 1020.3 |
| 20260831021031 | 59 | 184 | 5.0 | 12.0 | 0.00 | 0.00 | 0.00 | 92 | 1020.3 |
| 20260831020530 | 60 | 250 | 5.0 | 11.0 | 0.00 | 0.00 | 0.00 | 91 | 1020.2 |
| 20260831020046 | 60 | 240 | 3.0 | 10.0 | 0.00 | 0.00 | 0.00 | 91 | 1020.4 |
| 20260831015532 | 60 | 267 | 3.0 | 11.0 | 0.00 | 0.00 | 0.00 | 91 | 1020.4 |
| 20260831015028 | 60 | 268 | 4.0 | 11.0 | 0.00 | 0.00 | 0.00 | 91 | 1020.4 |
| 20260831014554 | 60 | 211 | 2.0 | 9.0 | 0.00 | 0.00 | 0.00 | 91 | 1020.4 |
| 20260831014030 | 60 | 255 | 1.0 | 6.0 | 0.00 | 0.00 | 0.00 | 91 | 1020.6 |
| 20260831013531 | 60 | 305 | 1.0 | 10.0 | 0.00 | 0.00 | 0.00 | 91 | 1020.6 |
| 20260831013109 | 60 | 74 | 2.0 | 15.0 | 0.00 | 0.00 | 0.00 | 91 | 1020.4 |
| 20260831012531 | 60 | 242 | 2.0 | 17.0 | 0.00 | 0.00 | 0.00 | 91 | 1020.0 |
| 20260831012029 | 60 | 248 | 7.0 | 17.0 | 0.00 | 0.00 | 0.00 | 91 | 1019.9 |
| 20260831011550 | 60 | 252 | 5.0 | 12.0 | 0.00 | 0.00 | 0.00 | 91 | 1020.0 |
| 20260831011034 | 60 | 178 | 4.0 | 13.0 | 0.00 | 0.00 | 0.00 | 91 | 1020.0 |
| 20260831010533 | 60 | 265 | 4.0 | 13.0 | 0.00 | 0.00 | 0.00 | 91 | 1020.0 |
| 20260831010100 | 60 | 268 | 4.0 | 10.0 | 0.00 | 0.00 | 0.00 | 91 | 1020.0 |
| 20260831005532 | 60 | 233 | 1.0 | 8.0 | 0.00 | 0.00 | 0.00 | 90 | 1020.0 |
| 20260831005033 | 60 | 244 | 3.0 | 8.0 | 0.00 | 0.00 | 0.00 | 90 | 1020.1 |
| 20260831004557 | 60 | 207 | 3.0 | 7.0 | 0.00 | 0.00 | 0.00 | 90 | 1019.9 |
| 20260831004034 | 60 | 192 | 1.0 | 15.0 | 0.00 | 0.00 | 0.00 | 90 | 1020.0 |
| 20260831003532 | 60 | 232 | 4.0 | 15.0 | 0.00 | 0.00 | 0.00 | 90 | 1019.6 |
| 20260831003051 | 60 | 201 | 3.0 | 14.0 | 0.00 | 0.00 | 0.00 | 90 | 1019.4 |
| 20260831002532 | 60 | 225 | 4.0 | 14.0 | 0.00 | 0.00 | 0.00 | 90 | 1019.2 |
| 20260831002029 | 60 | 244 | 4.0 | 14.0 | 0.00 | 0.00 | 0.00 | 90 | 1019.1 |
| 20260831001549 | 60 | 268 | 5.0 | 15.0 | 0.00 | 0.00 | 0.00 | 90 | 1018.8 |
| 20260831001034 | 60 | 238 | 6.0 | 15.0 | 0.00 | 0.00 | 0.00 | 89 | 1018.5 |
| 20260831000533 | 60 | 241 | 5.0 | 14.0 | 0.00 | 0.00 | 0.00 | 89 | 1018.5 |
| 20260831000059 | 60 | 260 | 5.0 | 14.0 | 0.00 | 0.00 | 0.00 | 89 | 1018.6 |
| 20260830235533 | 60 | 260 | 7.0 | 15.0 | 0.00 | 0.00 | 0.00 | 89 | 1018.5 |
| 20260830235034 | 60 | 273 | 7.0 | 15.0 | 0.00 | 0.00 | 0.00 | 89 | 1018.6 |
| 20260830234603 | 60 | 218 | 8.0 | 15.0 | 0.00 | 0.00 | 0.00 | 88 | 1018.6 |
| 20260830234032 | 60 | 257 | 6.0 | 14.0 | 0.00 | 0.00 | 0.00 | 89 | 1018.5 |
| 20260830233532 | 60 | 231 | 6.0 | 14.0 | 0.00 | 0.00 | 0.00 | 88 | 1018.5 |
| 20260830233058 | 61 | 245 | 6.0 | 12.0 | 0.00 | 0.00 | 0.00 | 89 | 1018.5 |
| 20260830232534 | 61 | 255 | 5.0 | 12.0 | 0.00 | 0.00 | 0.00 | 88 | 1018.8 |
| 20260830232032 | 61 | 265 | 6.0 | 12.0 | 0.00 | 0.00 | 0.00 | 88 | 1018.8 |
| 20260830231549 | 61 | 237 | 4.0 | 14.0 | 0.00 | 0.00 | 0.00 | 88 | 1019.0 |
| 20260830231028 | 62 | 268 | 6.0 | 14.0 | 0.00 | 0.00 | 0.00 | 87 | 1019.1 |
| 20260830230529 | 62 | 262 | 6.0 | 14.0 | 0.00 | 0.00 | 0.00 | 89 | 1019.2 |
| 20260830230057 | 62 | 288 | 5.0 | 14.0 | 0.00 | 0.00 | 0.00 | 88 | 1019.2 |
| 20260830225532 | 63 | 241 | 4.0 | 17.0 | 0.00 | 0.00 | 0.00 | 88 | 1019.1 |
| 20260830225029 | 63 | 254 | 7.0 | 17.0 | 0.00 | 0.00 | 0.00 | 86 | 1019.1 |
| 20260830224555 | 64 | 259 | 5.0 | 11.0 | 0.00 | 0.00 | 0.00 | 86 | 1019.3 |
| 20260830224033 | 65 | 246 | 4.0 | 14.0 | 0.00 | 0.00 | 0.00 | 85 | 1019.2 |
| 20260830223529 | 65 | 246 | 5.0 | 18.0 | 0.00 | 0.00 | 0.00 | 84 | 1019.0 |
| 20260830223048 | 65 | 221 | 7.0 | 18.0 | 0.00 | 0.00 | 0.00 | 83 | 1019.1 |
| 20260830222531 | 65 | 232 | 4.0 | 13.0 | 0.00 | 0.00 | 0.00 | 82 | 1019.1 |
| 20260830222032 | 65 | 231 | 4.0 | 13.0 | 0.00 | 0.00 | 0.00 | 82 | 1019.1 |
| 20260830221556 | 65 | 298 | 3.0 | 12.0 | 0.00 | 0.00 | 0.00 | 81 | 1019.1 |
| 20260830221029 | 66 | 188 | 4.0 | 11.0 | 0.00 | 0.00 | 0.00 | 81 | 1019.1 |
| 20260830220532 | 66 | 259 | 3.0 | 8.0 | 0.00 | 0.00 | 0.00 | 81 | 1019.1 |
| 20260830220057 | 66 | 232 | 3.0 | 9.0 | 0.00 | 0.00 | 0.00 | 80 | 1019.1 |
| 20260830215532 | 66 | 245 | 3.0 | 10.0 | 0.00 | 0.00 | 0.00 | 80 | 1019.1 |
| 20260830215033 | 66 | 237 | 3.0 | 10.0 | 0.00 | 0.00 | 0.00 | 79 | 1019.2 |
| 20260830214559 | 66 | 249 | 3.0 | 13.0 | 0.00 | 0.00 | 0.00 | 79 | 1019.1 |
| 20260830214028 | 67 | 252 | 3.0 | 13.0 | 0.00 | 0.00 | 0.00 | 79 | 1019.1 |
| 20260830213532 | 67 | 233 | 4.0 | 13.0 | 0.00 | 0.00 | 0.00 | 79 | 1019.1 |
| 20260830213050 | 67 | 234 | 1.0 | 8.0 | 0.00 | 0.00 | 0.00 | 79 | 1019.2 |
| 20260830212534 | 68 | 238 | 2.0 | 10.0 | 0.00 | 0.00 | 0.00 | 78 | 1019.2 |
| 20260830212029 | 68 | 180 | 4.0 | 10.0 | 0.00 | 0.00 | 0.00 | 77 | 1019.2 |
| 20260830211558 | 69 | 270 | 3.0 | 10.0 | 0.00 | 0.00 | 0.00 | 76 | 1019.1 |
| 20260830211033 | 69 | 254 | 4.0 | 10.0 | 0.00 | 0.00 | 0.00 | 75 | 1019.2 |
| 20260830210535 | 70 | 209 | 2.0 | 8.0 | 0.00 | 0.00 | 0.00 | 74 | 1019.4 |
| 20260830210058 | 71 | 257 | 2.0 | 8.0 | 0.00 | 0.00 | 0.00 | 73 | 1019.3 |
| 20260830205534 | 72 | 292 | 2.0 | 6.0 | 0.00 | 0.00 | 0.00 | 72 | 1019.5 |
| 20260830205034 | 71 | 221 | 2.0 | 8.0 | 0.00 | 0.00 | 0.00 | 72 | 1019.4 |
| 20260830204557 | 71 | 213 | 3.0 | 11.0 | 0.00 | 0.00 | 0.00 | 71 | 1019.5 |
| 20260830204034 | 71 | 246 | 2.0 | 11.0 | 0.00 | 0.00 | 0.00 | 71 | 1019.5 |
| 20260830203532 | 71 | 229 | 4.0 | 12.0 | 0.00 | 0.00 | 0.00 | 72 | 1019.5 |
| 20260830203114 | 71 | 190 | 4.0 | 12.0 | 0.00 | 0.00 | 0.00 | 71 | 1019.6 |
| 20260830202531 | 71 | 231 | 4.0 | 10.0 | 0.00 | 0.00 | 0.00 | 70 | 1019.5 |
| 20260830202030 | 71 | 220 | 4.0 | 10.0 | 0.00 | 0.00 | 0.00 | 70 | 1019.6 |
| 20260830201550 | 72 | 214 | 3.0 | 11.0 | 0.00 | 0.00 | 0.00 | 71 | 1019.7 |
| 20260830201033 | 72 | 167 | 3.0 | 11.0 | 0.00 | 0.00 | 0.00 | 70 | 1019.7 |
| 20260830200534 | 73 | 230 | 2.0 | 9.0 | 0.00 | 0.00 | 0.00 | 69 | 1019.7 |
| 20260830200056 | 73 | 273 | 3.0 | 9.0 | 0.00 | 0.00 | 0.00 | 67 | 1019.8 |
| 20260830195532 | 73 | 0 | 0.0 | 8.0 | 0.00 | 0.00 | 0.00 | 69 | 1019.7 |
| 20260830195032 | 73 | 219 | 3.0 | 9.0 | 0.00 | 0.00 | 0.00 | 67 | 1019.7 |
| 20260830194555 | 73 | 221 | 3.0 | 9.0 | 0.00 | 0.00 | 0.00 | 67 | 1019.7 |
| 20260830194032 | 73 | 258 | 3.0 | 9.0 | 0.00 | 0.00 | 0.00 | 67 | 1019.7 |
| 20260830193531 | 73 | 262 | 2.0 | 6.0 | 0.00 | 0.00 | 0.00 | 68 | 1019.9 |
| 20260830193052 | 73 | 280 | 2.0 | 6.0 | 0.00 | 0.00 | 0.00 | 68 | 1019.8 |
| 20260830192531 | 73 | 0 | 0.0 | 9.0 | 0.00 | 0.00 | 0.00 | 67 | 1020.0 |
| 20260830192034 | 73 | 262 | 1.0 | 9.0 | 0.00 | 0.00 | 0.00 | 67 | 1020.1 |
| 20260830191601 | 72 | 277 | 2.0 | 9.0 | 0.00 | 0.00 | 0.00 | 68 | 1020.0 |
| 20260830191031 | 72 | 180 | 4.0 | 9.0 | 0.00 | 0.00 | 0.00 | 68 | 1020.1 |
| 20260830190532 | 72 | 199 | 3.0 | 9.0 | 0.00 | 0.00 | 0.00 | 68 | 1020.1 |
| 20260830190058 | 72 | 268 | 3.0 | 13.0 | 0.00 | 0.00 | 0.00 | 67 | 1020.1 |
| 20260830185534 | 72 | 236 | 4.0 | 13.0 | 0.00 | 0.00 | 0.00 | 66 | 1020.2 |
| 20260830185029 | 73 | 246 | 2.0 | 8.0 | 0.00 | 0.00 | 0.00 | 67 | 1020.2 |
| 20260830184551 | 73 | 223 | 2.0 | 8.0 | 0.00 | 0.00 | 0.00 | 65 | 1020.1 |
| 20260830184032 | 73 | 221 | 2.0 | 8.0 | 0.00 | 0.00 | 0.00 | 67 | 1020.3 |
| 20260830183535 | 73 | 264 | 2.0 | 8.0 | 0.00 | 0.00 | 0.00 | 65 | 1020.3 |
| 20260830183101 | 73 | 207 | 3.0 | 14.0 | 0.00 | 0.00 | 0.00 | 65 | 1020.4 |
| 20260830182532 | 74 | 265 | 2.0 | 14.0 | 0.00 | 0.00 | 0.00 | 65 | 1020.4 |
| 20260830182034 | 74 | 275 | 2.0 | 12.0 | 0.00 | 0.00 | 0.00 | 63 | 1020.6 |
| 20260830181611 | 75 | 231 | 4.0 | 12.0 | 0.00 | 0.00 | 0.00 | 60 | 1020.5 |
| 20260830181033 | 75 | 160 | 3.0 | 10.0 | 0.00 | 0.00 | 0.00 | 63 | 1020.5 |
| 20260830180528 | 75 | 242 | 3.0 | 10.0 | 0.00 | 0.00 | 0.00 | 63 | 1020.6 |
| 20260830180058 | 75 | 245 | 2.0 | 9.0 | 0.00 | 0.00 | 0.00 | 62 | 1020.6 |
| 20260830175533 | 75 | 263 | 3.0 | 8.0 | 0.00 | 0.00 | 0.00 | 61 | 1020.7 |
| 20260830175032 | 75 | 276 | 3.0 | 9.0 | 0.00 | 0.00 | 0.00 | 60 | 1020.7 |
| 20260830174605 | 75 | 256 | 3.0 | 9.0 | 0.00 | 0.00 | 0.00 | 60 | 1020.8 |
| 20260830174030 | 76 | 271 | 3.0 | 9.0 | 0.00 | 0.00 | 0.00 | 59 | 1020.8 |
| 20260830173533 | 77 | 185 | 2.0 | 9.0 | 0.00 | 0.00 | 0.00 | 58 | 1020.8 |
| 20260830173110 | 77 | 236 | 3.0 | 9.0 | 0.00 | 0.00 | 0.00 | 57 | 1020.8 |
| 20260830172533 | 76 | 215 | 2.0 | 9.0 | 0.00 | 0.00 | 0.00 | 58 | 1020.8 |
| 20260830172034 | 75 | 252 | 4.0 | 8.0 | 0.00 | 0.00 | 0.00 | 58 | 1020.9 |
| 20260830171614 | 75 | 262 | 2.0 | 8.0 | 0.00 | 0.00 | 0.00 | 59 | 1020.9 |
| 20260830171033 | 74 | 0 | 2.0 | 11.0 | 0.00 | 0.00 | 0.00 | 60 | 1020.9 |
| 20260830170529 | 73 | 243 | 2.0 | 11.0 | 0.00 | 0.00 | 0.00 | 60 | 1020.9 |
| 20260830170059 | 72 | 258 | 2.0 | 11.0 | 0.00 | 0.00 | 0.00 | 65 | 1020.9 |
| 20260830165532 | 72 | 0 | 2.0 | 8.0 | 0.00 | 0.00 | 0.00 | 64 | 1021.0 |
| 20260830165031 | 71 | 293 | 2.0 | 10.0 | 0.00 | 0.00 | 0.00 | 63 | 1021.0 |
| 20260830164609 | 70 | 244 | 3.0 | 10.0 | 0.00 | 0.00 | 0.00 | 64 | 1021.0 |
| 20260830164031 | 69 | 295 | 2.0 | 10.0 | 0.00 | 0.00 | 0.00 | 69 | 1021.0 |
| 20260830163532 | 69 | 224 | 1.0 | 10.0 | 0.00 | 0.00 | 0.00 | 69 | 1021.1 |
| 20260830163109 | 68 | 195 | 1.0 | 10.0 | 0.00 | 0.00 | 0.00 | 67 | 1021.1 |
| 20260830162533 | 68 | 245 | 3.0 | 8.0 | 0.00 | 0.00 | 0.00 | 70 | 1021.3 |
| 20260830162032 | 67 | 190 | 2.0 | 8.0 | 0.00 | 0.00 | 0.00 | 69 | 1021.3 |
| 20260830161558 | 67 | 248 | 2.0 | 8.0 | 0.00 | 0.00 | 0.00 | 69 | 1021.2 |
| 20260830161029 | 67 | 247 | 2.0 | 10.0 | 0.00 | 0.00 | 0.00 | 69 | 1021.2 |
| 20260830160532 | 67 | 250 | 2.0 | 10.0 | 0.00 | 0.00 | 0.00 | 69 | 1021.3 |
| 20260830160056 | 67 | 273 | 2.0 | 10.0 | 0.00 | 0.00 | 0.00 | 70 | 1021.3 |
| 20260830155532 | 67 | 268 | 2.0 | 7.0 | 0.00 | 0.00 | 0.00 | 71 | 1021.5 |
| 20260830155032 | 67 | 214 | 1.0 | 6.0 | 0.00 | 0.00 | 0.00 | 72 | 1021.5 |
| 20260830154600 | 66 | 221 | 0.0 | 7.0 | 0.00 | 0.00 | 0.00 | 75 | 1021.6 |
| 20260830154032 | 65 | 153 | 2.0 | 7.0 | 0.00 | 0.00 | 0.00 | 73 | 1021.6 |
| 20260830153532 | 65 | 215 | 2.0 | 10.0 | 0.00 | 0.00 | 0.00 | 72 | 1021.7 |
| 20260830153104 | 65 | 231 | 3.0 | 10.0 | 0.00 | 0.00 | 0.00 | 72 | 1021.7 |
| 20260830152532 | 64 | 190 | 3.0 | 10.0 | 0.00 | 0.00 | 0.00 | 72 | 1021.9 |
| 20260830152031 | 64 | 325 | 3.0 | 10.0 | 0.00 | 0.00 | 0.00 | 72 | 1022.0 |
| 20260830151558 | 64 | 192 | 3.0 | 8.0 | 0.00 | 0.00 | 0.00 | 73 | 1021.9 |
| 20260830151031 | 64 | 239 | 2.0 | 7.0 | 0.00 | 0.00 | 0.00 | 75 | 1022.0 |
| 20260830150531 | 63 | 246 | 0.0 | 7.0 | 0.00 | 0.00 | 0.00 | 75 | 1022.0 |
| 20260830150057 | 63 | 0 | 0.0 | 6.0 | 0.00 | 0.00 | 0.00 | 76 | 1021.9 |
| 20260830145531 | 63 | 292 | 1.0 | 7.0 | 0.00 | 0.00 | 0.00 | 75 | 1021.9 |
| 20260830145029 | 62 | 0 | 2.0 | 7.0 | 0.00 | 0.00 | 0.00 | 75 | 1022.1 |
| 20260830144601 | 62 | 298 | 1.0 | 7.0 | 0.00 | 0.00 | 0.00 | 75 | 1022.1 |
| 20260830144031 | 62 | 240 | 2.0 | 8.0 | 0.00 | 0.00 | 0.00 | 75 | 1021.9 |
| 20260830143529 | 62 | 243 | 4.0 | 8.0 | 0.00 | 0.00 | 0.00 | 74 | 1021.8 |
| 20260830143051 | 62 | 250 | 2.0 | 10.0 | 0.00 | 0.00 | 0.00 | 76 | 1021.6 |
| 20260830142529 | 62 | 215 | 4.0 | 10.0 | 0.00 | 0.00 | 0.00 | 75 | 1021.9 |
| 20260830142029 | 62 | 267 | 2.0 | 10.0 | 0.00 | 0.00 | 0.00 | 76 | 1022.1 |
| 20260830141601 | 62 | 194 | 3.0 | 10.0 | 0.00 | 0.00 | 0.00 | 75 | 1022.2 |
| 20260830141031 | 62 | 225 | 3.0 | 8.0 | 0.00 | 0.00 | 0.00 | 77 | 1022.1 |
| 20260830140531 | 62 | 237 | 3.0 | 14.0 | 0.00 | 0.00 | 0.00 | 76 | 1022.0 |
| 20260830140057 | 62 | 215 | 3.0 | 14.0 | 0.00 | 0.00 | 0.00 | 76 | 1022.1 |
| 20260830135533 | 62 | 238 | 4.0 | 14.0 | 0.00 | 0.00 | 0.00 | 75 | 1022.1 |
| 20260830135029 | 62 | 288 | 3.0 | 9.0 | 0.00 | 0.00 | 0.00 | 76 | 1022.1 |
| 20260830134551 | 62 | 257 | 4.0 | 11.0 | 0.00 | 0.00 | 0.00 | 75 | 1022.0 |
| 20260830134031 | 62 | 272 | 4.0 | 12.0 | 0.00 | 0.00 | 0.00 | 75 | 1021.9 |
| 20260830133538 | 62 | 263 | 4.0 | 12.0 | 0.00 | 0.00 | 0.00 | 76 | 1021.9 |
| 20260830133140 | 62 | 264 | 4.0 | 11.0 | 0.00 | 0.00 | 0.00 | 75 | 1021.9 |
| 20260830132532 | 62 | 247 | 4.0 | 11.0 | 0.00 | 0.00 | 0.00 | 74 | 1022.1 |
| 20260830132032 | 62 | 260 | 4.0 | 11.0 | 0.00 | 0.00 | 0.00 | 75 | 1022.3 |
| 20260830131614 | 62 | 240 | 3.0 | 10.0 | 0.00 | 0.00 | 0.00 | 76 | 1022.3 |
| 20260830131031 | 62 | 255 | 3.0 | 10.0 | 0.00 | 0.00 | 0.00 | 76 | 1022.2 |
| 20260830130531 | 62 | 267 | 3.0 | 9.0 | 0.00 | 0.00 | 0.00 | 75 | 1022.2 |
| 20260830130057 | 62 | 261 | 3.0 | 11.0 | 0.00 | 0.00 | 0.00 | 76 | 1022.2 |
| 20260830125529 | 61 | 197 | 4.0 | 11.0 | 0.00 | 0.00 | 0.00 | 75 | 1022.3 |
| 20260830125030 | 61 | 211 | 4.0 | 14.0 | 0.00 | 0.00 | 0.00 | 75 | 1022.3 |
| 20260830124608 | 61 | 248 | 4.0 | 14.0 | 0.00 | 0.00 | 0.00 | 75 | 1022.2 |
| 20260830124033 | 61 | 256 | 3.0 | 9.0 | 0.00 | 0.00 | 0.00 | 75 | 1022.4 |
| 20260830123530 | 61 | 263 | 3.0 | 9.0 | 0.00 | 0.00 | 0.00 | 76 | 1022.4 |
| 20260830123052 | 61 | 223 | 2.0 | 10.0 | 0.00 | 0.00 | 0.00 | 76 | 1022.4 |
| 20260830122532 | 61 | 290 | 3.0 | 10.0 | 0.00 | 0.00 | 0.00 | 75 | 1022.3 |
| 20260830122031 | 61 | 240 | 4.0 | 10.0 | 0.00 | 0.00 | 0.00 | 76 | 1022.3 |
| 20260830121558 | 61 | 252 | 4.0 | 10.0 | 0.00 | 0.00 | 0.00 | 76 | 1022.4 |
| 20260830121028 | 61 | 261 | 3.0 | 9.0 | 0.00 | 0.00 | 0.00 | 76 | 1022.4 |
| 20260830120528 | 61 | 284 | 3.0 | 11.0 | 0.00 | 0.00 | 0.00 | 76 | 1022.5 |
| 20260830120056 | 61 | 257 | 3.0 | 15.0 | 0.00 | 0.00 | 0.00 | 76 | 1022.4 |
| 20260830115530 | 61 | 162 | 4.0 | 15.0 | 0.00 | 0.00 | 0.00 | 76 | 1022.4 |
| 20260830115029 | 61 | 240 | 3.0 | 9.0 | 0.00 | 0.00 | 0.00 | 76 | 1022.3 |
| 20260830114559 | 61 | 282 | 3.0 | 10.0 | 0.00 | 0.00 | 0.00 | 76 | 1022.3 |
| 20260830114028 | 61 | 259 | 3.0 | 12.0 | 0.00 | 0.00 | 0.00 | 76 | 1022.3 |
| 20260830113533 | 61 | 249 | 4.0 | 12.0 | 0.00 | 0.00 | 0.00 | 75 | 1022.3 |
| 20260830113050 | 61 | 254 | 3.0 | 10.0 | 0.00 | 0.00 | 0.00 | 76 | 1022.4 |
| 20260830112529 | 61 | 254 | 4.0 | 10.0 | 0.00 | 0.00 | 0.00 | 75 | 1022.5 |
| 20260830112029 | 61 | 275 | 3.0 | 10.0 | 0.00 | 0.00 | 0.00 | 75 | 1022.5 |
| 20260830111546 | 61 | 234 | 3.0 | 12.0 | 0.00 | 0.00 | 0.00 | 75 | 1022.5 |
| 20260830111030 | 61 | 241 | 3.0 | 12.0 | 0.00 | 0.00 | 0.00 | 75 | 1022.6 |
| 20260830110528 | 61 | 219 | 4.0 | 11.0 | 0.00 | 0.00 | 0.00 | 75 | 1022.5 |
| 20260830110057 | 60 | 216 | 4.0 | 12.0 | 0.00 | 0.00 | 0.00 | 75 | 1022.4 |
| 20260830105533 | 60 | 247 | 4.0 | 12.0 | 0.00 | 0.00 | 0.00 | 75 | 1022.4 |
| 20260830105029 | 60 | 186 | 4.0 | 12.0 | 0.00 | 0.00 | 0.00 | 75 | 1022.5 |
| 20260830104558 | 60 | 234 | 5.0 | 9.0 | 0.00 | 0.00 | 0.00 | 75 | 1022.4 |
| 20260830104033 | 60 | 275 | 4.0 | 10.0 | 0.00 | 0.00 | 0.00 | 75 | 1022.4 |
| 20260830103534 | 60 | 264 | 3.0 | 10.0 | 0.00 | 0.00 | 0.00 | 76 | 1022.4 |
| 20260830103049 | 60 | 257 | 4.0 | 10.0 | 0.00 | 0.00 | 0.00 | 75 | 1022.4 |
| 20260830102532 | 60 | 252 | 4.0 | 8.0 | 0.00 | 0.00 | 0.00 | 76 | 1022.4 |
| 20260830102028 | 60 | 234 | 4.0 | 7.0 | 0.00 | 0.00 | 0.00 | 76 | 1022.5 |
| 20260830101600 | 60 | 237 | 3.0 | 8.0 | 0.00 | 0.00 | 0.00 | 75 | 1022.4 |
| 20260830101028 | 60 | 246 | 3.0 | 9.0 | 0.00 | 0.00 | 0.00 | 76 | 1022.3 |
| 20260830100529 | 60 | 246 | 4.0 | 9.0 | 0.00 | 0.00 | 0.00 | 75 | 1022.4 |
| 20260830100108 | 60 | 251 | 4.0 | 9.0 | 0.00 | 0.00 | 0.00 | 75 | 1022.4 |
| 20260830095534 | 60 | 236 | 4.0 | 9.0 | 0.00 | 0.00 | 0.00 | 75 | 1022.4 |
| 20260830095028 | 60 | 273 | 5.0 | 14.0 | 0.00 | 0.00 | 0.00 | 75 | 1022.4 |
| 20260830094555 | 60 | 258 | 4.0 | 14.0 | 0.00 | 0.00 | 0.00 | 75 | 1022.3 |
| 20260830094028 | 60 | 265 | 4.0 | 14.0 | 0.00 | 0.00 | 0.00 | 75 | 1022.5 |
| 20260830093530 | 60 | 233 | 3.0 | 8.0 | 0.00 | 0.00 | 0.00 | 75 | 1022.5 |
| 20260830093048 | 60 | 252 | 3.0 | 9.0 | 0.00 | 0.00 | 0.00 | 75 | 1022.5 |
| 20260830092529 | 60 | 269 | 3.0 | 10.0 | 0.00 | 0.00 | 0.00 | 75 | 1022.7 |
| 20260830092028 | 60 | 277 | 4.0 | 10.0 | 0.00 | 0.00 | 0.00 | 75 | 1022.6 |
| 20260830091557 | 60 | 265 | 2.0 | 7.0 | 0.00 | 0.00 | 0.00 | 75 | 1022.7 |
| 20260830091029 | 60 | 254 | 2.0 | 6.0 | 0.00 | 0.00 | 0.00 | 75 | 1022.8 |
| 20260830090532 | 60 | 203 | 2.0 | 13.0 | 0.00 | 0.00 | 0.00 | 74 | 1022.8 |
| 20260830090059 | 60 | 208 | 3.0 | 13.0 | 0.00 | 0.00 | 0.00 | 74 | 1022.6 |
| 20260830085528 | 60 | 266 | 2.0 | 8.0 | 0.00 | 0.00 | 0.00 | 74 | 1022.6 |
| 20260830085030 | 60 | 221 | 1.0 | 7.0 | 0.00 | 0.00 | 0.00 | 74 | 1022.8 |
| 20260830084603 | 60 | 279 | 1.0 | 8.0 | 0.00 | 0.00 | 0.00 | 74 | 1022.7 |
| 20260830084031 | 60 | 250 | 2.0 | 8.0 | 0.00 | 0.00 | 0.00 | 73 | 1022.8 |
| 20260830083531 | 60 | 245 | 2.0 | 8.0 | 0.00 | 0.00 | 0.00 | 73 | 1022.7 |
| 20260830083107 | 60 | 252 | 2.0 | 8.0 | 0.00 | 0.00 | 0.00 | 73 | 1022.8 |
| 20260830082528 | 60 | 241 | 2.0 | 9.0 | 0.00 | 0.00 | 0.00 | 73 | 1022.7 |
| 20260830082030 | 60 | 251 | 2.0 | 9.0 | 0.00 | 0.00 | 0.00 | 73 | 1022.8 |
| 20260830081603 | 60 | 242 | 2.0 | 9.0 | 0.00 | 0.00 | 0.00 | 73 | 1022.7 |
| 20260830081029 | 60 | 252 | 0.0 | 6.0 | 0.00 | 0.00 | 0.00 | 73 | 1022.7 |
| 20260830080529 | 60 | 263 | 1.0 | 8.0 | 0.00 | 0.00 | 0.00 | 73 | 1022.8 |
| 20260830080047 | 60 | 194 | 2.0 | 8.0 | 0.00 | 0.00 | 0.00 | 73 | 1022.8 |
| 20260830075530 | 60 | 242 | 3.0 | 10.0 | 0.00 | 0.00 | 0.00 | 73 | 1022.8 |